Find Orbcomm FM115

NORAD ID: 41186 Int'l Des: 2015-081 Owner: ORBC Country: US Constellation: orbcomm operational
LEOCIRCULAR

Live-Position

3D-Globus wird geladen...

Über Orbcomm FM115

Beschreibung wird geladen...

Nächste Überflüge

Passes for default location (London). Set your location on the main map for personalized predictions.

Höhenverlauf

Loading altitude history...

Zweizeiliger Elementsatz

1 41186U 15081H 26129.45247422 .00000425 00000-0 11572-3 0 9995
2 41186 46.9987 286.9408 0000850 172.7745 187.3155 14.63221429555546
Epoch: 9. Mai 2026 • Age: 10 hours

Aktueller Status

Höhe 689.0 km
Geschwindigkeit 7.51 km/s
Subsatellitenpunkt -22.36°S, 86.67°E
Startdatum 22. Dez. 2015
Alter 10.3 years
Typ other

Technische Details

Klassifizierung Payload
Masse 172.00 kg
Trockenmasse 158.00 kg
Gesamtmasse 172.00 kg
Länge 1.00 m
Durchmesser 0.50 m
Spannweite 13.00 m
Form Box+pan+ant
Hersteller SNVL
Bus-Typ SN-100A
Phasenstatus In Orbit
Besitzer/Staat ORBC/US

Most Searched